Grub im Wienerwald
Wetterdaten: aktuell Sonntag, 26.09.2021 12:06
Datum Zeit Temp. A. Feuchte A. Luftdruck Regen Wind Richtung Richtung Sonnenschein UV Solar Taupunkt Windchill Windben
26.09.2021 12:06 19,5 C 77 % 1018,9 hPa 0,0 l/m 5,7 km/h O-SO 123 3 min 4,3 UV-I 589 W/m 15,4 C 19,5 C 17,7 km/h
26.09.2021 12:03 19,4 C 76 % 1018,9 hPa 0,0 l/m 4,9 km/h O 97 3 min 4,3 UV-I 585 W/m 15,1 C 19,4 C 11,3 km/h
26.09.2021 12:00 19,4 C 79 % 1018,9 hPa 0,0 l/m 4,7 km/h O 88 3 min 4,3 UV-I 585 W/m 15,7 C 19,4 C 9,7 km/h
26.09.2021 11:57 19,3 C 80 % 1018,9 hPa 0,0 l/m 2,5 km/h N 9 3 min 4,1 UV-I 580 W/m 15,8 C 19,3 C 6,4 km/h
26.09.2021 11:54 19,1 C 79 % 1018,9 hPa 0,0 l/m 0,8 km/h N 5 3 min 4,1 UV-I 577 W/m 15,4 C 19,1 C 3,2 km/h
26.09.2021 11:51 19,0 C 80 % 1019,0 hPa 0,0 l/m 2,3 km/h N 5 3 min 4,1 UV-I 571 W/m 15,5 C 19,0 C 6,4 km/h
26.09.2021 11:48 18,8 C 80 % 1018,9 hPa 0,0 l/m 0,1 km/h N 5 3 min 4,0 UV-I 571 W/m 15,3 C 18,8 C 1,6 km/h
26.09.2021 11:45 18,7 C 83 % 1019,0 hPa 0,0 l/m 1,1 km/h N 5 3 min 4,0 UV-I 566 W/m 15,8 C 18,7 C 4,8 km/h
26.09.2021 11:42 18,5 C 84 % 1019,0 hPa 0,0 l/m 1,8 km/h N 5 3 min 3,9 UV-I 563 W/m 15,7 C 18,5 C 4,8 km/h
26.09.2021 11:39 18,3 C 84 % 1019,0 hPa 0,0 l/m 0,4 km/h N 5 3 min 3,9 UV-I 555 W/m 15,5 C 18,3 C 3,2 km/h
26.09.2021 11:36 18,2 C 85 % 1019,0 hPa 0,0 l/m 1,6 km/h N 5 3 min 3,9 UV-I 555 W/m 15,6 C 18,2 C 4,8 km/h
26.09.2021 11:33 17,9 C 86 % 1019,0 hPa 0,0 l/m 1,2 km/h N 5 3 min 3,9 UV-I 552 W/m 15,5 C 17,9 C 4,8 km/h
26.09.2021 11:30 17,7 C 87 % 1019,0 hPa 0,0 l/m 3,0 km/h N 5 3 min 3,8 UV-I 547 W/m 15,5 C 17,7 C 8,0 km/h
26.09.2021 11:27 17,5 C 90 % 1019,1 hPa 0,0 l/m 4,4 km/h N 5 3 min 3,8 UV-I 545 W/m 15,8 C 17,5 C 8,0 km/h
26.09.2021 11:24 17,3 C 91 % 1019,0 hPa 0,0 l/m 0,8 km/h N-NW 345 3 min 3,8 UV-I 543 W/m 15,8 C 17,3 C 6,4 km/h
26.09.2021 11:21 17,1 C 93 % 1019,1 hPa 0,0 l/m 0,4 km/h N-NW 348 3 min 3,7 UV-I 540 W/m 16,0 C 17,1 C 4,8 km/h
26.09.2021 11:18 16,7 C 94 % 1019,2 hPa 0,0 l/m 3,1 km/h N-NW 348 3 min 3,7 UV-I 533 W/m 15,7 C 16,7 C 6,4 km/h
26.09.2021 11:15 16,4 C 96 % 1019,2 hPa 0,0 l/m 2,4 km/h N-NW 346 3 min 3,6 UV-I 531 W/m 15,8 C 16,4 C 4,8 km/h
26.09.2021 11:12 16,2 C 96 % 1019,2 hPa 0,0 l/m 1,5 km/h N-NW 346 3 min 3,6 UV-I 527 W/m 15,6 C 16,2 C 6,4 km/h
26.09.2021 11:09 16,0 C 97 % 1019,1 hPa 0,0 l/m 0,1 km/h N-NW 346 3 min 3,5 UV-I 520 W/m 15,5 C 16,0 C 1,6 km/h
26.09.2021 11:06 15,8 C 98 % 1019,1 hPa 0,0 l/m 2,1 km/h N-NW 346 3 min 3,5 UV-I 515 W/m 15,5 C 15,8 C 6,4 km/h
26.09.2021 11:03 15,6 C 98 % 1019,1 hPa 0,0 l/m 1,5 km/h N-NW 346 3 min 3,5 UV-I 512 W/m 15,3 C 15,6 C 4,8 km/h
26.09.2021 11:00 15,3 C 99 % 1019,2 hPa 0,0 l/m 2,0 km/h N-NW 346 3 min 3,4 UV-I 508 W/m 15,1 C 15,3 C 4,8 km/h
26.09.2021 10:57 15,1 C 99 % 1019,2 hPa 0,0 l/m 3,8 km/h N-NW 346 3 min 3,4 UV-I 501 W/m 14,9 C 15,1 C 8,0 km/h
26.09.2021 10:54 14,8 C 98 % 1019,3 hPa 0,0 l/m 2,5 km/h N-NW 346 3 min 3,2 UV-I 499 W/m 14,5 C 14,8 C 8,0 km/h
26.09.2021 10:51 14,7 C 99 % 1019,3 hPa 0,0 l/m 4,4 km/h N-NW 345 3 min 3,2 UV-I 492 W/m 14,5 C 14,7 C 8,0 km/h
26.09.2021 10:48 14,6 C 99 % 1019,4 hPa 0,0 l/m 5,4 km/h N-NW 344 3 min 3,1 UV-I 485 W/m 14,4 C 14,6 C 9,7 km/h
26.09.2021 10:45 14,6 C 99 % 1019,3 hPa 0,0 l/m 2,8 km/h N-NW 340 3 min 3,1 UV-I 482 W/m 14,4 C 14,6 C 6,4 km/h
26.09.2021 10:42 14,4 C 99 % 1019,3 hPa 0,0 l/m 4,0 km/h N-NW 340 3 min 3,0 UV-I 476 W/m 14,2 C 14,4 C 8,0 km/h
26.09.2021 10:39 14,3 C 99 % 1019,2 hPa 0,0 l/m 1,3 km/h N-NW 340 3 min 3,0 UV-I 466 W/m 14,1 C 14,3 C 6,4 km/h
26.09.2021 10:36 14,2 C 98 % 1019,2 hPa 0,0 l/m 1,1 km/h N-NW 340 3 min 2,9 UV-I 466 W/m 13,9 C 14,2 C 3,2 km/h
26.09.2021 10:33 14,1 C 99 % 1019,2 hPa 0,0 l/m 1,2 km/h N-NW 340 3 min 2,9 UV-I 462 W/m 13,9 C 14,1 C 4,8 km/h
26.09.2021 10:30 14,0 C 99 % 1019,2 hPa 0,0 l/m 0,7 km/h N-NW 340 3 min 2,8 UV-I 454 W/m 13,8 C 14,0 C 4,8 km/h
26.09.2021 10:27 13,9 C 99 % 1019,2 hPa 0,0 l/m 2,8 km/h N-NW 340 3 min 2,7 UV-I 448 W/m 13,7 C 13,9 C 6,4 km/h
26.09.2021 10:24 13,8 C 99 % 1019,2 hPa 0,0 l/m 2,9 km/h N-NW 340 3 min 2,7 UV-I 443 W/m 13,6 C 13,8 C 4,8 km/h
26.09.2021 10:21 13,7 C 99 % 1019,2 hPa 0,0 l/m 1,7 km/h N-NW 340 3 min 2,6 UV-I 436 W/m 13,5 C 13,7 C 4,8 km/h
26.09.2021 10:18 13,5 C 98 % 1019,3 hPa 0,0 l/m 2,4 km/h N-NW 340 3 min 2,6 UV-I 431 W/m 13,2 C 13,5 C 4,8 km/h
26.09.2021 10:15 13,3 C 99 % 1019,2 hPa 0,0 l/m 0,7 km/h N-NW 340 3 min 2,4 UV-I 352 W/m 13,1 C 13,3 C 3,2 km/h
26.09.2021 10:12 13,2 C 98 % 1019,2 hPa 0,0 l/m 2,1 km/h N-NW 340 3 min 2,4 UV-I 445 W/m 12,9 C 13,2 C 6,4 km/h
26.09.2021 10:09 13,1 C 98 % 1019,3 hPa 0,0 l/m 1,9 km/h N-NW 340 3 min 2,4 UV-I 439 W/m 12,8 C 13,1 C 4,8 km/h
26.09.2021 10:06 12,9 C 99 % 1019,3 hPa 0,0 l/m 0,0 km/h N-NW 340 3 min 2,4 UV-I 436 W/m 12,7 C 12,9 C 1,6 km/h
26.09.2021 10:03 12,8 C 98 % 1019,3 hPa 0,0 l/m 0,0 km/h N-NW 340 3 min 2,2 UV-I 427 W/m 12,5 C 12,8 C 1,6 km/h
26.09.2021 10:00 12,7 C 99 % 1019,3 hPa 0,0 l/m 0,0 km/h N-NW 340 3 min 2,1 UV-I 404 W/m 12,5 C 12,7 C 0,0 km/h
26.09.2021 09:57 12,5 C 99 % 1019,3 hPa 0,0 l/m 0,0 km/h N-NW 340 3 min 2,1 UV-I 369 W/m 12,3 C 12,5 C 0,0 km/h
26.09.2021 09:54 12,3 C 99 % 1019,2 hPa 0,0 l/m 0,0 km/h N-NW 340 3 min 2,0 UV-I 432 W/m 12,1 C 12,3 C 0,0 km/h
26.09.2021 09:51 11,9 C 99 % 1019,2 hPa 0,0 l/m 0,0 km/h N-NW 340 3 min 1,9 UV-I 362 W/m 11,7 C 11,9 C 1,6 km/h
26.09.2021 09:48 11,7 C 98 % 1019,2 hPa 0,0 l/m 0,0 km/h N-NW 340 3 min 1,7 UV-I 288 W/m 11,4 C 11,7 C 0,0 km/h
26.09.2021 09:45 11,6 C 99 % 1019,1 hPa 0,0 l/m 0,0 km/h N-NW 340 0 min 1,5 UV-I 204 W/m 11,4 C 11,6 C 1,6 km/h
26.09.2021 09:42 11,3 C 98 % 1019,2 hPa 0,0 l/m 1,1 km/h N-NW 340 0 min 1,3 UV-I 206 W/m 11,0 C 11,3 C 3,2 km/h
26.09.2021 09:39 11,1 C 98 % 1019,1 hPa 0,0 l/m 0,0 km/h N-NW 340 0 min 1,3 UV-I 216 W/m 10,8 C 11,1 C 0,0 km/h
26.09.2021 09:36 10,8 C 98 % 1019,2 hPa 0,0 l/m 0,0 km/h N-NW 340 0 min 1,2 UV-I 193 W/m 10,5 C 10,8 C 0,0 km/h
26.09.2021 09:33 10,7 C 98 % 1019,2 hPa 0,0 l/m 0,0 km/h N-NW 340 0 min 1,1 UV-I 151 W/m 10,4 C 10,7 C 0,0 km/h
26.09.2021 09:30 10,6 C 98 % 1019,2 hPa 0,0 l/m 0,0 km/h N-NW 340 0 min 1,1 UV-I 171 W/m 10,3 C 10,6 C 0,0 km/h
26.09.2021 09:27 10,4 C 98 % 1019,3 hPa 0,0 l/m 0,0 km/h N-NW 340 0 min 1,1 UV-I 163 W/m 10,1 C 10,4 C 0,0 km/h
26.09.2021 09:24 10,2 C 98 % 1019,2 hPa 0,0 l/m 0,0 km/h N-NW 340 0 min 1,1 UV-I 171 W/m 9,9 C 10,2 C 0,0 km/h
26.09.2021 09:21 10,1 C 98 % 1019,3 hPa 0,0 l/m 0,0 km/h N-NW 340 0 min 1,0 UV-I 155 W/m 9,8 C 10,1 C 0,0 km/h
26.09.2021 09:18 10,0 C 98 % 1019,2 hPa 0,0 l/m 0,0 km/h N-NW 340 0 min 1,1 UV-I 162 W/m 9,7 C 10,0 C 0,0 km/h
26.09.2021 09:15 9,9 C 97 % 1019,2 hPa 0,0 l/m 0,0 km/h N-NW 340 0 min 1,0 UV-I 139 W/m 9,4 C 9,9 C 0,0 km/h
26.09.2021 09:12 9,8 C 98 % 1019,2 hPa 0,0 l/m 0,0 km/h N-NW 340 0 min 1,0 UV-I 128 W/m 9,5 C 9,8 C 1,6 km/h
26.09.2021 09:09 9,7 C 98 % 1019,1 hPa 0,0 l/m 0,0 km/h N-NW 340 0 min 0,9 UV-I 125 W/m 9,4 C 9,7 C 0,0 km/h
26.09.2021 09:06 9,6 C 97 % 1019,1 hPa 0,0 l/m 0,0 km/h N-NW 340 0 min 0,9 UV-I 121 W/m 9,1 C 9,6 C 0,0 km/h
26.09.2021 09:03 9,4 C 97 % 1019,1 hPa 0,0 l/m 0,0 km/h N-NW 340 0 min 0,9 UV-I 123 W/m 8,9 C 9,4 C 0,0 km/h
26.09.2021 09:00 9,3 C 97 % 1019,1 hPa 0,0 l/m 0,0 km/h N-NW 340 0 min 0,9 UV-I 116 W/m 8,8 C 9,3 C 0,0 km/h
26.09.2021 08:57 9,2 C 97 % 1019,1 hPa 0,0 l/m 0,0 km/h N-NW 340 0 min 0,8 UV-I 113 W/m 8,7 C 9,2 C 0,0 km/h
26.09.2021 08:54 9,0 C 97 % 1019,0 hPa 0,0 l/m 0,0 km/h N-NW 340 0 min 0,8 UV-I 111 W/m 8,5 C 9,0 C 0,0 km/h
26.09.2021 08:51 8,9 C 97 % 1018,9 hPa 0,0 l/m 0,0 km/h N-NW 340 0 min 0,8 UV-I 105 W/m 8,4 C 8,9 C 1,6 km/h
26.09.2021 08:48 8,7 C 97 % 1018,9 hPa 0,0 l/m 0,0 km/h N-NW 340 0 min 0,8 UV-I 104 W/m 8,3 C 8,7 C 0,0 km/h
26.09.2021 08:45 8,6 C 97 % 1018,9 hPa 0,0 l/m 0,0 km/h N-NW 340 0 min 0,7 UV-I 98 W/m 8,2 C 8,6 C 0,0 km/h
26.09.2021 08:42 8,5 C 97 % 1018,9 hPa 0,0 l/m 0,0 km/h N-NW 340 0 min 0,7 UV-I 93 W/m 8,1 C 8,5 C 0,0 km/h
26.09.2021 08:39 8,4 C 97 % 1018,9 hPa 0,0 l/m 0,0 km/h N-NW 340 0 min 0,7 UV-I 88 W/m 8,0 C 8,4 C 0,0 km/h
26.09.2021 08:36 8,3 C 97 % 1018,9 hPa 0,0 l/m 0,0 km/h N-NW 340 0 min 0,7 UV-I 81 W/m 7,9 C 8,3 C 0,0 km/h
26.09.2021 08:33 8,2 C 97 % 1018,9 hPa 0,0 l/m 0,0 km/h N-NW 340 0 min 0,7 UV-I 83 W/m 7,8 C 8,2 C 0,0 km/h
26.09.2021 08:30 8,0 C 97 % 1018,8 hPa 0,0 l/m 0,0 km/h N-NW 340 0 min 0,7 UV-I 84 W/m 7,6 C 8,0 C 0,0 km/h
26.09.2021 08:27 7,8 C 97 % 1018,9 hPa 0,0 l/m 0,0 km/h N-NW 340 0 min 0,7 UV-I 81 W/m 7,4 C 7,8 C 0,0 km/h
26.09.2021 08:24 7,7 C 96 % 1018,8 hPa 0,0 l/m 0,0 km/h N-NW 340 0 min 0,7 UV-I 81 W/m 7,1 C 7,7 C 0,0 km/h
26.09.2021 08:21 7,6 C 96 % 1018,8 hPa 0,0 l/m 0,0 km/h N-NW 340 0 min 0,6 UV-I 79 W/m 7,0 C 7,6 C 0,0 km/h
26.09.2021 08:18 7,5 C 96 % 1018,8 hPa 0,0 l/m 0,0 km/h N-NW 340 0 min 0,6 UV-I 81 W/m 6,9 C 7,5 C 0,0 km/h
26.09.2021 08:15 7,4 C 96 % 1018,8 hPa 0,0 l/m 0,0 km/h N-NW 340 0 min 0,6 UV-I 77 W/m 6,8 C 7,4 C 0,0 km/h
26.09.2021 08:12 7,3 C 96 % 1018,8 hPa 0,0 l/m 0,0 km/h N-NW 340 0 min 0,6 UV-I 72 W/m 6,7 C 7,3 C 0,0 km/h
26.09.2021 08:09 7,2 C 96 % 1018,9 hPa 0,0 l/m 0,0 km/h N-NW 340 0 min 0,6 UV-I 72 W/m 6,6 C 7,2 C 0,0 km/h
26.09.2021 08:06 7,1 C 96 % 1019,0 hPa 0,0 l/m 0,0 km/h N-NW 340 0 min 0,6 UV-I 69 W/m 6,5 C 7,1 C 0,0 km/h
26.09.2021 08:03 7,1 C 96 % 1018,9 hPa 0,0 l/m 0,0 km/h N-NW 340 0 min 0,6 UV-I 62 W/m 6,5 C 7,1 C 0,0 km/h
26.09.2021 08:00 6,9 C 96 % 1018,9 hPa 0,0 l/m 0,0 km/h N-NW 340 0 min 0,6 UV-I 58 W/m 6,3 C 6,9 C 0,0 km/h
26.09.2021 07:57 6,9 C 96 % 1018,9 hPa 0,0 l/m 0,0 km/h N-NW 340 0 min 0,0 UV-I 54 W/m 6,3 C 6,9 C 0,0 km/h
26.09.2021 07:54 6,8 C 95 % 1018,9 hPa 0,0 l/m 0,0 km/h N-NW 340 0 min 0,0 UV-I 53 W/m 6,1 C 6,8 C 0,0 km/h
26.09.2021 07:51 6,8 C 95 % 1018,9 hPa 0,0 l/m 0,0 km/h N-NW 340 0 min 0,0 UV-I 54 W/m 6,1 C 6,8 C 0,0 km/h
26.09.2021 07:48 6,8 C 95 % 1018,8 hPa 0,0 l/m 0,0 km/h N-NW 340 0 min 0,0 UV-I 53 W/m 6,1 C 6,8 C 0,0 km/h
26.09.2021 07:45 6,8 C 95 % 1018,8 hPa 0,0 l/m 0,0 km/h N-NW 340 0 min 0,0 UV-I 49 W/m 6,1 C 6,8 C 0,0 km/h
26.09.2021 07:42 6,8 C 95 % 1018,7 hPa 0,0 l/m 0,0 km/h N-NW 340 0 min 0,0 UV-I 47 W/m 6,1 C 6,8 C 0,0 km/h
26.09.2021 07:39 6,7 C 95 % 1018,7 hPa 0,0 l/m 0,0 km/h N-NW 340 0 min 0,0 UV-I 44 W/m 6,0 C 6,7 C 0,0 km/h
26.09.2021 07:36 6,7 C 95 % 1018,7 hPa 0,0 l/m 0,0 km/h N-NW 340 0 min 0,0 UV-I 40 W/m 6,0 C 6,7 C 0,0 km/h
_ Min-Zeit 07:00 13:45 16:33 - 16:57 - - - - - 07:00 07:00 16:57
Minimum _ 6,7 C 43 % 1016,5 hPa - 0,0 km/h - - - - - 6,0 C 6,7 C 0,0 km/h
_ Max-Zeit 15:54 09:45 10:48 13:00 13:24 - - 13:00 13:00 13:06 11:21 15:54 13:18
Maximum _ 26,1 C 99 % 1019,4 hPa 0,0 l/m 11,7 km/h
N-NW
- - 3 min 5,2 UV-I 650 W/m 16,0 C 26,1 C 19,3 km/h
N
Durchschnitt _ 14,8 C 79 % 1017,6 hPa #0,0 l/m 1,6 km/h N-NW - #2:24 h 2,2 UV-I 258 W/m 10,5 C 14,8 C 3,1 km/h
Schulla EDV